TimeMDT,TemperatureF,Dew PointF,Humidity,Sea Level PressureIn,VisibilityMPH,Wind Direction,Wind SpeedMPH,Gust SpeedMPH,PrecipitationIn,Events,Conditions,WindDirDegrees,DateUTC
12:53 AM,44.1,19.0,37,29.70,10.0,Calm,Calm,-,N/A,,Clear,0,2013-03-16 06:53:00
1:53 AM,44.1,19.0,37,29.72,10.0,WNW,3.5,-,N/A,,Clear,290,2013-03-16 07:53:00
2:53 AM,46.0,25.0,44,29.75,10.0,NNE,11.5,-,N/A,,Clear,30,2013-03-16 08:53:00
3:53 AM,45.0,34.0,65,29.78,10.0,NNE,10.4,-,N/A,,Clear,30,2013-03-16 09:53:00
4:53 AM,44.1,30.9,60,29.82,10.0,NE,17.3,-,N/A,,Clear,50,2013-03-16 10:53:00
5:53 AM,42.1,28.0,58,29.87,10.0,NE,5.8,-,N/A,,Clear,50,2013-03-16 11:53:00
6:53 AM,39.0,27.0,62,29.92,10.0,NE,6.9,-,N/A,,Clear,40,2013-03-16 12:53:00
7:53 AM,39.9,28.0,63,29.94,10.0,Calm,Calm,-,N/A,,Clear,0,2013-03-16 13:53:00
8:53 AM,46.0,28.9,51,29.96,10.0,ENE,8.1,-,N/A,,Clear,60,2013-03-16 14:53:00
9:53 AM,50.0,28.9,44,29.96,10.0,ENE,9.2,-,N/A,,Clear,60,2013-03-16 15:53:00
10:53 AM,51.1,28.9,43,29.97,10.0,Variable,4.6,-,N/A,,Clear,0,2013-03-16 16:53:00
11:53 AM,55.0,28.0,35,29.95,10.0,East,6.9,-,N/A,,Clear,100,2013-03-16 17:53:00
12:53 PM,55.9,28.0,34,29.93,10.0,ESE,4.6,-,N/A,,Clear,120,2013-03-16 18:53:00
1:53 PM,57.9,26.1,30,29.89,10.0,East,9.2,-,N/A,,Clear,80,2013-03-16 19:53:00
2:53 PM,57.0,26.1,30,29.85,10.0,ENE,5.8,-,N/A,,Clear,70,2013-03-16 20:53:00
3:53 PM,57.9,24.1,27,29.83,10.0,ESE,15.0,19.6,N/A,,Clear,110,2013-03-16 21:53:00
4:53 PM,57.0,21.0,25,29.82,10.0,ESE,12.7,-,N/A,,Clear,110,2013-03-16 22:53:00
5:53 PM,53.1,19.0,26,29.85,10.0,ESE,10.4,-,N/A,,Clear,110,2013-03-16 23:53:00
6:53 PM,51.1,21.0,31,29.88,10.0,ESE,12.7,-,N/A,,Overcast,110,2013-03-17 00:53:00
7:53 PM,48.0,23.0,37,29.86,10.0,ESE,11.5,-,N/A,,Overcast,110,2013-03-17 01:53:00
8:53 PM,46.9,24.1,41,29.89,10.0,ESE,11.5,-,N/A,,Overcast,110,2013-03-17 02:53:00
9:53 PM,43.0,24.1,47,29.89,10.0,ESE,13.8,-,N/A,,Partly Cloudy,120,2013-03-17 03:53:00
10:53 PM,41.0,24.1,51,29.89,10.0,ESE,10.4,18.4,N/A,,Mostly Cloudy,120,2013-03-17 04:53:00
11:53 PM,39.0,24.1,55,29.87,10.0,ESE,10.4,-,N/A,,Mostly Cloudy,120,2013-03-17 05:53:00